Regional Weather Roundup
Issued by NWS

Home | Current Version | Previous Version | Text Only | Print | Product List | Glossary Off
Versions: 1 2 3 4 5 6 7 8 9 10 11 12 13 14 15 16 17 18 19 20 21 22 23 24 25 26 27 28 29 30 31 32 33 34 35 36 37 38 39 40 41 42 43 44 45 46 47 48 49 50

000
ASUS45 KTFX 011810
RWRMT
MONTANA REGIONAL WEATHER ROUNDUP
NATIONAL WEATHER SERVICE GREAT FALLS MT
1200 PM MDT TUE SEP 01 2015

NOTE: "FAIR" INDICATES FEW OR NO CLOUDS BELOW 12000 FEET WITH NO
SIGNIFICANT WEATHER AND/OR OBSTRUCTIONS TO VISIBILITY.

MTZ001>007-043-011900-
WEST OF THE DIVIDE

CITY           SKY/WX    TMP DP  RH WIND       PRES   REMARKS
KALISPELL      CLEAR     72  37  28 SW10G18   29.89S
MISSOULA       SUNNY     66  44  45 VRB3      29.93F
BUTTE          MOSUNNY   71  27  19 W12       30.01F
MULLAN PASS    MOSUNNY   52  39  61 SW8       30.02R
DEER LODGE       N/A     66  39  37 CALM      30.00F
EUREKA           N/A     70  39  32 SE8G16    29.88F
HAMILTON         N/A     64  45  48 NE5       29.92F
LIBBY            N/A     68  39  34 S6        29.89F
$$

MTZ008-052>055-011900-
SOUTHWEST MONTANA

CITY           SKY/WX    TMP DP  RH WIND       PRES   REMARKS
BOZEMAN        SUNNY     74  35  24 NW7       29.96F
DILLON         SUNNY     75  31  19 SW12      29.99F
W YELLOWSTONE  SUNNY     70  27  19 S14G21    30.11F
$$

MTZ009-010-012-014-046-048-049-054-011900-
EAST SLOPES AND CENTRAL MONTANA

CITY           SKY/WX    TMP DP  RH WIND       PRES   REMARKS
CUT BANK       PTSUNNY   69  27  20 SW23G32   29.81S
GREAT FALLS    PTSUNNY   77  37  23 SW25G35   29.85S
MALMSTROM AFB  PTSUNNY   76  38  25 SW18G30   29.85F
HELENA         SUNNY     74  41  30 NE7       29.91F
CONRAD           N/A     74  26  16 S7        29.87R
$$

MTZ011-013-016-021-045-047-050-051-011900-
NORTH CENTRAL MONTANA

CITY           SKY/WX    TMP DP  RH WIND       PRES   REMARKS
HAVRE          MOSUNNY   80  30  16 SW21G32   29.76F
LEWISTOWN      MOSUNNY   78  36  21 W16G23    29.89F
N BAR RANCH      N/A     79  39  24 VRB5G13   29.92F
CHINOOK          N/A     79  36  21 SW14G23   29.76F
FORT BENTON      N/A     79  34  19 SW16G22     N/A
$$

MTZ017>020-022>027-061-062-011900-
NORTHEAST MONTANA

CITY           SKY/WX    TMP DP  RH WIND       PRES   REMARKS
GLASGOW        SUNNY     78  45  30 VRB6      29.79S
JORDAN           N/A     83  38  20 NW14G24   29.81S
SIDNEY         SUNNY     84  55  37 S9        29.78F
WOLF POINT     SUNNY     83  52  34 W10       29.77F
MALTA            N/A     80  45  29 W3        29.76S
PLENTYWOOD       N/A     81  52  36 S13       29.78F
POPLAR           N/A     82  52  34 SW6       29.77F
$$

MTZ028>42-056>058-011900-
SOUTHCENTRAL AND SOUTHEAST MONTANA

CITY           SKY/WX    TMP DP  RH WIND       PRES   REMARKS
BAKER          SUNNY     84  57  39 MISG      29.85F
BILLINGS       MOSUNNY   83  30  14 SW7       29.88F
LIVINGSTON     SUNNY     82  29  14 W13G22    29.92F
MILES CITY     SUNNY     85  48  27 NW8       29.82F
EKALAKA          N/A     81  51  35 CALM      29.87F
FORSYTH          N/A     81  41  24 W9        29.83F
LAUREL           N/A     83  33  16 S1        29.88F
$$

REGIONAL REPORTS...DAKOTAS

CITY           SKY/WX    TMP DP  RH WIND       PRES   REMARKS
WILLISTON      SUNNY     84  58  40 VRB6      29.79F
MINOT          SUNNY     83  55  38 S10G18    29.81F
DICKINSON      SUNNY     83  57  41 S9        29.82F
CROSBY           N/A     82  50  32 S14       29.77F
BISMARCK       SUNNY     82  60  47 SE10      29.84F
GRAND FORKS    MOSUNNY   83  55  38 SW12      29.84F
FARGO          SUNNY     86  53  32 SE8       29.86F
BUFFALO SD       N/A     79  61  53 E3        29.80F
RAPID CITY     SUNNY     78  61  55 VRB5      29.88F
$$

REGIONAL REPORTS...WYOMING/IDAHO/WASHINGTON

CITY           SKY/WX    TMP DP  RH WIND       PRES   REMARKS
GILLETTE       SUNNY     85  32  15 W8        29.93F
SHERIDAN       SUNNY     87  36  16 E6        29.89F
BUFFALO WY     SUNNY     84  31  14 E7        29.97F
CODY           SUNNY     82  30  15 W7        29.96F
YELLOWSTONE LA   N/A     68  27  21 VRB5      30.20F
IDAHO FALLS    SUNNY     73  38  27 W7        30.03S
SALMON         SUNNY     68  41  37 W5        29.94F
BOISE          SUNNY     77  39  25 CALM      29.92F
SPOKANE        PTSUNNY   64  44  48 SW14      29.91F
$$

REGIONAL REPORTS...ALBERTA

CITY           SKY/WX    TMP DP  RH WIND       PRES   REMARKS
EDMONTON       MOSUNNY   63  37  39 NW14G29   29.62R
CALGARY        MOSUNNY   64  39  39 N5        29.69S
LETHBRIDGE     MOSUNNY   73  37  27 SW23G33   29.73S
MEDICINE HAT   MOSUNNY   77  36  22 W30G38    29.70R
MILK RIVER       N/A     72  36  26 SW14G20     N/A
$$

REGIONAL REPORTS...SASKATCHEWAN

CITY           SKY/WX    TMP DP  RH WIND       PRES   REMARKS
SWIFT CURRENT  SUNNY     75  37  25 W20G31    29.72F
REGINA         MOSUNNY   77  46  33 SW17G23   29.72F
SASKATOON      MOSUNNY   75  45  33 SW17G26   29.63R
CYPRESS HILLS    N/A     72  32  23 W17G26      N/A
ROCKGLEN         N/A     77  43  29 SW16G22     N/A
ASSINIBOIA       N/A     66  43  42 W17G23      N/A
$$



USA.gov is the U.S. government's official web portal to all federal, state and local government web resources and services.